| time (UTC) | temp F | wind direction | speed knots | gust knots | rain 1hr in | rain 24hr in | rain mn in | humidity % | barometer mb |
| 20260504050024 | 45 | 315 | 0.0 | 0.0 | 0.00 | 0.00 | 0.00 | 60 | 974.6 |
| 20260504044526 | 46 | 315 | 0.0 | 0.0 | 0.00 | 0.00 | 0.00 | 59 | 974.7 |
| 20260504043023 | 47 | 315 | 0.0 | 0.0 | 0.00 | 0.00 | 0.00 | 58 | 974.6 |
| 20260504041524 | 48 | 315 | 0.0 | 0.0 | 0.00 | 0.00 | 0.00 | 56 | 974.6 |
| 20260504040023 | 49 | 315 | 0.0 | 0.0 | 0.00 | 0.00 | 0.00 | 54 | 974.7 |
| 20260504034531 | 50 | 315 | 0.0 | 0.0 | 0.00 | 0.00 | 0.00 | 52 | 974.9 |
| 20260504033054 | 51 | 315 | 0.0 | 0.0 | 0.00 | 0.00 | 0.00 | 50 | 975.0 |
| 20260504031559 | 52 | 315 | 0.0 | 0.0 | 0.00 | 0.00 | 0.00 | 49 | 975.1 |
| 20260504030050 | 53 | 315 | 0.0 | 0.0 | 0.00 | 0.00 | 0.00 | 48 | 975.0 |
| 20260504024556 | 54 | 315 | 0.0 | 0.9 | 0.00 | 0.00 | 0.00 | 46 | 975.0 |
| 20260504023047 | 56 | 315 | 0.0 | 1.7 | 0.00 | 0.00 | 0.00 | 43 | 974.9 |
| 20260504021551 | 57 | 315 | 0.0 | 0.0 | 0.00 | 0.00 | 0.00 | 39 | 974.8 |
| 20260504020048 | 59 | 315 | 0.0 | 0.0 | 0.00 | 0.00 | 0.00 | 37 | 974.6 |
| 20260504014543 | 62 | 315 | 0.0 | 0.0 | 0.00 | 0.00 | 0.00 | 34 | 974.4 |
| 20260504013048 | 64 | 315 | 0.0 | 0.9 | 0.00 | 0.00 | 0.00 | 30 | 974.3 |
| 20260504011542 | 66 | 315 | 0.0 | 0.0 | 0.00 | 0.00 | 0.00 | 27 | 974.3 |
| 20260504010038 | 67 | 315 | 0.0 | 1.7 | 0.00 | 0.00 | 0.00 | 24 | 974.3 |
| 20260504004546 | 68 | 315 | 0.0 | 2.6 | 0.00 | 0.00 | 0.00 | 22 | 974.3 |
| 20260504003037 | 68 | 342 | 0.9 | 4.3 | 0.00 | 0.00 | 0.00 | 22 | 974.4 |
| 20260504001537 | 69 | 287 | 2.6 | 7.0 | 0.00 | 0.00 | 0.00 | 20 | 974.2 |
| 20260504000005 | 70 | 338 | 3.5 | 10.4 | 0.00 | 0.00 | 0.00 | 20 | 974.3 |
| 20260503234505 | 71 | 52 | 1.7 | 7.0 | 0.00 | 0.00 | 0.00 | 20 | 974.2 |
| 20260503233003 | 71 | 257 | 0.9 | 2.6 | 0.00 | 0.00 | 0.00 | 19 | 974.1 |
| 20260503231503 | 71 | 65 | 4.3 | 12.2 | 0.00 | 0.00 | 0.00 | 18 | 974.1 |
| 20260503230003 | 72 | 312 | 4.3 | 11.3 | 0.00 | 0.00 | 0.00 | 17 | 973.9 |
| 20260503224502 | 72 | 355 | 2.6 | 7.8 | 0.00 | 0.00 | 0.00 | 19 | 973.8 |
| 20260503223101 | 73 | 290 | 3.5 | 8.7 | 0.00 | 0.00 | 0.00 | 19 | 973.7 |
| 20260503221600 | 73 | 338 | 1.7 | 10.4 | 0.00 | 0.00 | 0.00 | 18 | 973.7 |
| 20260503214606 | 72 | 290 | 5.2 | 10.4 | 0.00 | 0.00 | 0.00 | 22 | 973.9 |
| 20260503213054 | 72 | 313 | 6.1 | 11.3 | 0.00 | 0.00 | 0.00 | 21 | 974.0 |
| 20260503211603 | 73 | 300 | 5.2 | 13.0 | 0.00 | 0.00 | 0.00 | 22 | 974.0 |
| 20260503210050 | 72 | 34 | 3.5 | 8.7 | 0.00 | 0.00 | 0.00 | 25 | 974.0 |
| 20260503204549 | 72 | 289 | 3.5 | 10.4 | 0.00 | 0.00 | 0.00 | 24 | 974.3 |
| 20260503203044 | 72 | 12 | 2.6 | 9.6 | 0.00 | 0.00 | 0.00 | 29 | 974.3 |
| 20260503201543 | 72 | 291 | 3.5 | 8.7 | 0.00 | 0.00 | 0.00 | 25 | 974.4 |
| 20260503200040 | 71 | 269 | 4.3 | 8.7 | 0.00 | 0.00 | 0.00 | 25 | 974.6 |
| 20260503194543 | 71 | 294 | 4.3 | 9.6 | 0.00 | 0.00 | 0.00 | 28 | 974.7 |
| 20260503193020 | 70 | 298 | 3.5 | 9.6 | 0.00 | 0.00 | 0.00 | 30 | 974.9 |
| 20260503191505 | 70 | 247 | 3.5 | 8.7 | 0.00 | 0.00 | 0.00 | 27 | 975.2 |
| 20260503190040 | 70 | 267 | 3.5 | 10.4 | 0.00 | 0.00 | 0.00 | 26 | 975.2 |
| 20260503184528 | 69 | 288 | 3.5 | 7.8 | 0.00 | 0.00 | 0.00 | 30 | 975.3 |
| 20260503183058 | 68 | 271 | 6.1 | 10.4 | 0.00 | 0.00 | 0.00 | 28 | 975.5 |
| 20260503181602 | 68 | 360 | 3.5 | 8.7 | 0.00 | 0.00 | 0.00 | 28 | 975.7 |
| 20260503180050 | 68 | 275 | 3.5 | 8.7 | 0.00 | 0.00 | 0.00 | 29 | 975.8 |
| 20260503174603 | 67 | 313 | 2.6 | 13.0 | 0.00 | 0.00 | 0.00 | 29 | 975.8 |
| 20260503173047 | 66 | 255 | 5.2 | 12.2 | 0.00 | 0.00 | 0.00 | 30 | 976.1 |
| 20260503171543 | 64 | 193 | 3.5 | 12.2 | 0.00 | 0.00 | 0.00 | 32 | 976.2 |
| 20260503081601 | 45 | 217 | 0.9 | 2.6 | 0.00 | 0.00 | 0.00 | 51 | 980.3 |
| 20260503071542 | 40 | 222 | 0.0 | 0.0 | 0.00 | 0.00 | 0.00 | 62 | 980.6 |
| 20260503054530 | 40 | 222 | 0.0 | 0.0 | 0.00 | 0.00 | 0.00 | 62 | 981.3 |
| 20260503053020 | 41 | 222 | 0.0 | 0.0 | 0.00 | 0.00 | 0.00 | 61 | 981.4 |